Menomonie, WI

11:48 AM CDT on April 29, 2017 (GMT -0500)
Menomonie

Weather History for KLUM - November, 2013

Change the Weather History Date:

Monday, November 11, 2013

  Actual Average (KEAU) Record (KEAU)
Temperature  
Mean Temperature 28 °F -  
Max Temperature 39 °F 40 °F 67 °F (2012)
Min Temperature 17 °F 24 °F 0 °F (1986)
Degree Days  
Heating Degree Days 36    
Moisture  
Dew Point 13 °F    
Average Humidity 58    
Maximum Humidity 90    
Minimum Humidity 38    
Precipitation  
Precipitation 0.00 in - - ()
Sea Level Pressure  
Sea Level Pressure 30.38 in    
Wind  
Wind Speed 13 mph (NW)    
Max Wind Speed 21 mph    
Max Gust Speed 28 mph    
Visibility 10 miles    
Events Snow    
Averages and records for this station are not official NWS values.
T = Trace of Precipitation, MM = Missing Value Source: NWS Daily Summary

Daily Weather History Graph

Daily Weather History Graph

Search for Another Location

Airport or City:

Trip Planner

Search our weather history database for the weather conditions in past years. The results will help you decide how hot, cold, wet, or windy it might be!

Date:

Astronomy

Nov. 11, 2013 Rise Set
Actual Time 6:59 AM CST 4:42 PM CST
Civil Twilight 6:28 AM CST 5:14 PM CST
Nautical Twilight 5:53 AM CST 5:49 PM CST
Astronomical Twilight 5:18 AM CST 6:23 PM CST
Moon 1:37 PM CST (11/11) 12:29 AM CST (11/11)
Length of Visible Light 10h 45m
Length of Day
9h 43m
Waxing Gibbous, 66% of the Moon is Illuminated
Nov 11
Waxing Gibbous
Nov 17
Full
Nov 25
Last Quarter
Dec 2
New
Dec 9
First Quarter

Hourly Weather History & Observations

Time (CST) Temp. Windchill Dew Point Humidity Pressure Visibility Wind Dir Wind Speed Gust Speed Precip Events Conditions
12:15 AM 39.6 °F 35.4 °F 29.8 °F 68% 30.08 in 10.0 mi WSW 5.8 mph - N/A   Overcast
12:35 AM 39.6 °F 34.0 °F 29.8 °F 68% 30.08 in 10.0 mi West 8.1 mph - N/A   Overcast
12:55 AM 39.6 °F 32.1 °F 29.7 °F 68% 30.08 in 10.0 mi West 12.7 mph - N/A   Overcast
1:15 AM 39.2 °F 32.5 °F 29.8 °F 69% 30.08 in 10.0 mi WNW 10.4 mph - N/A   Overcast
1:35 AM 38.3 °F 30.9 °F 29.8 °F 72% 30.08 in 10.0 mi WNW 11.5 mph - N/A   Overcast
1:55 AM 37.9 °F 29.6 °F 29.8 °F 73% 30.08 in 10.0 mi WNW 13.8 mph 19.6 mph N/A   Overcast
2:15 AM 37.6 °F 29.1 °F 29.1 °F 72% 30.10 in 10.0 mi WNW 13.8 mph 23.0 mph N/A   Overcast
2:35 AM 37.0 °F 28.9 °F 29.5 °F 74% 30.10 in 10.0 mi NW 12.7 mph 18.4 mph N/A   Light Drizzle
2:55 AM 36.5 °F 29.7 °F 29.8 °F 77% 30.11 in 10.0 mi NW 9.2 mph 18.4 mph N/A   Overcast
3:15 AM 36.0 °F 29.0 °F 30.0 °F 79% 30.11 in 7.0 mi WNW 9.2 mph - N/A Snow Light Snow
3:35 AM 35.1 °F 27.4 °F 30.9 °F 85% 30.12 in 7.0 mi NW 10.4 mph - N/A Snow Light Snow
3:55 AM 32.9 °F 22.0 °F 30.2 °F 90% 30.14 in 3.0 mi NW 17.3 mph - N/A Snow Light Snow
4:15 AM 32.7 °F 23.4 °F 29.8 °F 89% 30.14 in 4.0 mi NW 12.7 mph - N/A Snow Light Snow
4:35 AM 31.6 °F 20.4 °F 26.2 °F 80% 30.16 in 2.5 mi NW 17.3 mph 25.3 mph N/A Snow Light Snow
4:55 AM 30.7 °F 20.4 °F 20.5 °F 66% 30.18 in 10.0 mi NW 13.8 mph 20.7 mph N/A   Overcast
5:15 AM 30.2 °F 19.3 °F 19.0 °F 63% 30.19 in 10.0 mi NNW 15.0 mph 21.9 mph N/A   Overcast
5:35 AM 28.9 °F 16.1 °F 13.3 °F 52% 30.21 in 10.0 mi NNW 19.6 mph 27.6 mph N/A   Overcast
5:55 AM 28.0 °F 16.1 °F 12.4 °F 52% 30.22 in 10.0 mi NNW 16.1 mph 21.9 mph N/A   Overcast
6:15 AM 27.5 °F 16.3 °F 14.4 °F 58% 30.23 in 10.0 mi NNW 13.8 mph 23.0 mph N/A   Overcast
6:35 AM 27.5 °F 15.9 °F 15.8 °F 61% 30.24 in 10.0 mi NNW 15.0 mph 19.6 mph N/A   Overcast
6:55 AM 26.8 °F 14.1 °F 15.3 °F 62% 30.25 in 10.0 mi NNW 17.3 mph 20.7 mph N/A   Overcast
7:15 AM 26.2 °F 14.7 °F 15.1 °F 63% 30.27 in 10.0 mi NNW 13.8 mph - N/A   Overcast
7:35 AM 25.7 °F 12.7 °F 14.7 °F 63% 30.28 in 10.0 mi North 17.3 mph 20.7 mph N/A   Overcast
7:55 AM 24.3 °F 9.6 °F 11.5 °F 58% 30.31 in 10.0 mi NNW 20.7 mph 25.3 mph N/A   Overcast
8:15 AM 23.0 °F 8.7 °F 10.8 °F 60% 30.33 in 10.0 mi NNW 18.4 mph 25.3 mph N/A   Mostly Cloudy
8:35 AM 22.8 °F 8.5 °F 11.7 °F 62% 30.34 in 10.0 mi NNW 18.4 mph - N/A   Mostly Cloudy
8:55 AM 22.5 °F 7.6 °F 11.8 °F 64% 30.35 in 10.0 mi NNW 19.6 mph 23.0 mph N/A   Scattered Clouds
9:15 AM 22.5 °F 9.4 °F 11.8 °F 64% 30.36 in 10.0 mi NNW 15.0 mph - N/A   Clear
9:35 AM 22.5 °F 8.0 °F 11.5 °F 63% 30.37 in 10.0 mi NNW 18.4 mph - N/A   Scattered Clouds
9:55 AM 22.6 °F 8.3 °F 10.9 °F 61% 30.37 in 10.0 mi NNW 18.4 mph 21.9 mph N/A   Scattered Clouds
10:15 AM 23.0 °F 9.6 °F 11.1 °F 60% 30.38 in 10.0 mi NNW 16.1 mph 23.0 mph N/A   Scattered Clouds
10:35 AM 23.5 °F 10.8 °F 11.3 °F 60% 30.39 in 10.0 mi NNW 15.0 mph 23.0 mph N/A   Scattered Clouds
10:55 AM 24.4 °F 11.0 °F 11.7 °F 58% 30.39 in 10.0 mi NNW 17.3 mph 20.7 mph N/A   Scattered Clouds
11:15 AM 24.8 °F 11.9 °F 11.3 °F 57% 30.40 in 10.0 mi NW 16.1 mph - N/A   Scattered Clouds
11:35 AM 24.4 °F 11.5 °F 10.8 °F 56% 30.40 in 10.0 mi NW 16.1 mph - N/A   Scattered Clouds
11:55 AM 24.4 °F 11.0 °F 10.0 °F 54% 30.41 in 10.0 mi NNW 17.3 mph 23.0 mph N/A   Clear
12:15 PM 23.5 °F 10.3 °F 9.9 °F 56% 30.41 in 10.0 mi NW 16.1 mph 19.6 mph N/A   Clear
12:35 PM 25.3 °F 12.2 °F 9.5 °F 51% 30.41 in 10.0 mi NNW 17.3 mph 24.2 mph N/A   Clear
12:55 PM 26.2 °F 15.2 °F 8.8 °F 48% 30.41 in 10.0 mi NW 12.7 mph 20.7 mph N/A   Clear
1:15 PM 27.1 °F 15.9 °F 9.7 °F 48% 30.40 in 10.0 mi NW 13.8 mph 20.7 mph N/A   Clear
1:35 PM 27.9 °F 16.8 °F 9.1 °F 45% 30.41 in 10.0 mi NW 13.8 mph 20.7 mph N/A   Clear
1:55 PM 28.2 °F 16.8 °F 7.2 °F 41% 30.42 in 10.0 mi NNW 15.0 mph 23.0 mph N/A   Clear
2:15 PM 28.4 °F 15.4 °F 7.3 °F 41% 30.42 in 10.0 mi NW 19.6 mph 25.3 mph N/A   Clear
2:35 PM 28.2 °F 17.7 °F 7.0 °F 41% 30.42 in 10.0 mi NNW 12.7 mph 20.7 mph N/A   Clear
2:55 PM 28.4 °F 15.8 °F 5.5 °F 38% 30.43 in 10.0 mi NW 18.4 mph 24.2 mph N/A   Clear
3:15 PM 28.4 °F 15.4 °F 5.9 °F 39% 30.44 in 10.0 mi NNW 19.6 mph 24.2 mph N/A   Clear
3:35 PM 28.0 °F 17.5 °F 5.9 °F 39% 30.45 in 10.0 mi NW 12.7 mph - N/A   Clear
3:55 PM 27.5 °F 17.4 °F 5.0 °F 38% 30.46 in 10.0 mi NNW 11.5 mph 24.2 mph N/A   Clear
4:15 PM 27.3 °F 15.6 °F 4.6 °F 38% 30.46 in 10.0 mi WNW 15.0 mph - N/A   Clear
4:35 PM 26.6 °F 15.7 °F 5.5 °F 41% 30.48 in 10.0 mi NW 12.7 mph - N/A   Clear
4:55 PM 25.7 °F 14.0 °F 5.9 °F 43% 30.48 in 10.0 mi WNW 13.8 mph - N/A   Clear
5:15 PM 25.2 °F 15.7 °F 6.3 °F 45% 30.50 in 10.0 mi WNW 9.2 mph - N/A   Clear
5:35 PM 24.4 °F 15.6 °F 6.8 °F 47% 30.51 in 10.0 mi WNW 8.1 mph - N/A   Clear
5:55 PM 24.3 °F 14.6 °F 6.8 °F 47% 30.52 in 10.0 mi WNW 9.2 mph - N/A   Clear
6:15 PM 23.9 °F 12.3 °F 7.0 °F 49% 30.53 in 10.0 mi WNW 12.7 mph - N/A   Clear
6:35 PM 23.7 °F 13.3 °F 6.8 °F 49% 30.54 in 10.0 mi NW 10.4 mph - N/A   Clear
6:55 PM 23.2 °F 12.0 °F 7.2 °F 50% 30.55 in 10.0 mi NW 11.5 mph - N/A   Clear
7:15 PM 22.8 °F 11.5 °F 6.8 °F 50% 30.56 in 10.0 mi NW 11.5 mph - N/A   Clear
7:35 PM 22.6 °F 10.7 °F 6.6 °F 50% 30.56 in 10.0 mi NW 12.7 mph - N/A   Clear
7:55 PM 22.1 °F 10.0 °F 6.4 °F 51% 30.57 in 10.0 mi NW 12.7 mph 18.4 mph N/A   Clear
8:15 PM 21.9 °F 10.4 °F 6.6 °F 52% 30.58 in 10.0 mi WNW 11.5 mph - N/A   Clear
8:35 PM 21.6 °F 12.1 °F 6.6 °F 53% 30.59 in 10.0 mi NW 8.1 mph - N/A   Clear
8:55 PM 21.2 °F 10.9 °F 6.6 °F 53% 30.61 in 10.0 mi NW 9.2 mph - N/A   Clear
9:15 PM 20.7 °F 11.9 °F 7.2 °F 56% 30.62 in 10.0 mi NW 6.9 mph - N/A   Clear
9:35 PM 20.3 °F 9.8 °F 7.2 °F 57% 30.63 in 10.0 mi NW 9.2 mph - N/A   Clear
9:55 PM 19.9 °F 10.1 °F 7.3 °F 58% 30.64 in 10.0 mi NW 8.1 mph - N/A   Clear
10:15 PM 19.9 °F 10.1 °F 6.8 °F 57% 30.65 in 10.0 mi WNW 8.1 mph - N/A   Clear
10:35 PM 19.4 °F 10.4 °F 7.2 °F 59% 30.65 in 10.0 mi WNW 6.9 mph - N/A   Clear
10:55 PM 19.2 °F 10.2 °F 7.2 °F 59% 30.65 in 10.0 mi WNW 6.9 mph - N/A   Clear
11:15 PM 18.7 °F 9.5 °F 7.3 °F 61% 30.65 in 10.0 mi NW 6.9 mph - N/A   Clear
11:35 PM 18.3 °F 8.2 °F 7.5 °F 63% 30.66 in 10.0 mi WNW 8.1 mph - N/A   Clear
11:55 PM 17.6 °F 7.3 °F 7.7 °F 65% 30.66 in 10.0 mi WNW 8.1 mph - N/A   Clear